This demonstration page uses our WeatherBlox Daily Observations layout. Learn more.

Left ArrowRight Arrow

39.51506, -84.39828

Hourly Observations for March 14, 2018

Temp ( °F °C ) Dew Point ( °F °C ) Humidity (%) Winds ( mph kmh ) Pressure ( in mb ) Visibility ( mi km ) Precip ( " mm )
12:15 am 00:15 Clear 27 -2.9 16 -9.1 63 63 NW 9 15 30.12 1020 10 16.0934 N/A
12:35 am 00:35 Clear 26 -3.2 16 -9.1 64 64 NW 10 17 30.12 1020 10 16.0934 N/A
12:55 am 00:55 Clear 26 -3.3 15 -9.2 64 64 NW 12 19 30.12 1020 10 16.0934 N/A
1:15 am 01:15 Clear 26 -3.4 16 -9.1 65 65 NW 8 13 30.12 1020 10 16.0934 N/A
1:35 am 01:35 Clear 25 -3.7 16 -8.8 68 68 NW 12 19 30.12 1020 10 16.0934 N/A
1:55 am 01:55 Clear 25 -3.7 17 -8.6 69 69 NW 9 15 30.12 1020 10 16.0934 N/A
2:15 am 02:15 Clear 25 -3.7 17 -8.5 70 70 NW 9 15 30.12 1020 10 16.0934 N/A
2:35 am 02:35 Cloudy 26 -3.5 17 -8.2 70 70 NW 8 13 30.12 1020 10 16.0934 N/A
2:55 am 02:55 Cloudy with Light Snow 26 -3.4 18 -7.9 71 71 NW 12 19 30.12 1020 10 16.0934 N/A
3:15 am 03:15 Cloudy with Light Snow 27 -3 19 -7.3 73 73 NNW 8 13 30.12 1020 10 16.0934 N/A
3:35 am 03:35 Cloudy with Light Snow 27 -3 20 -6.9 75 75 NW 8 13 30.12 1020 10 16.0934 N/A
3:55 am 03:55 Cloudy 27 -3 20 -6.8 75 75 NW 9 15 30.12 1020 10 16.0934 N/A
4:15 am 04:15 Cloudy 27 -3 20 -6.7 76 76 NW 8 13 30.12 1020 10 16.0934 N/A
4:35 am 04:35 Mostly Cloudy 26 -3.2 20 -6.9 76 76 NW 10 17 30.12 1020 10 16.0934 N/A
4:55 am 04:55 Cloudy 26 -3.2 19 -7 75 75 NW 9 15 30.12 1020 10 16.0934 N/A
5:15 am 05:15 Cloudy 26 -3.1 20 -6.9 75 75 NW 10 17 30.12 1020 10 16.0934 N/A
5:35 am 05:35 Cloudy 27 -3 20 -6.7 76 76 NW 10 17 30.12 1020 10 16.0934 N/A
5:55 am 05:55 Cloudy 26 -3.1 20 -6.7 76 76 NW 9 15 30.12 1020 10 16.0934 N/A
6:15 am 06:15 Cloudy 27 -3 20 -6.7 76 76 NW 9 15 30.12 1020 10 16.0934 N/A
6:35 am 06:35 Cloudy 26 -3.2 19 -7 75 75 NW 10 17 30.12 1020 10 16.0934 N/A
6:55 am 06:55 Cloudy 26 -3.3 19 -7.3 74 74 NW 9 15 30.12 1020 10 16.0934 N/A
7:15 am 07:15 Mostly Cloudy 26 -3.3 17 -8.2 69 69 NW 7 11 30.12 1020 10 16.0934 N/A
7:35 am 07:35 Cloudy 26 -3.3 17 -8.6 67 67 WNW 10 17 30.12 1020 10 16.0934 N/A
7:55 am 07:55 Mostly Cloudy 25 -3.7 16 -8.9 68 68 NW 7 11 30.12 1020 10 16.0934 N/A
8:15 am 08:15 Cloudy 26 -3.3 15 -9.4 63 63 NW 6 9 30.15 1021 10 16.0934 N/A
8:35 am 08:35 Cloudy 26 -3.1 16 -9 64 64 WNW 6 9 30.15 1021 10 16.0934 N/A
8:55 am 08:55 Cloudy 27 -2.9 17 -8.5 66 66 W 7 11 30.15 1021 10 16.0934 N/A
9:15 am 09:15 Cloudy 27 -2.6 18 -7.8 68 68 NW 7 11 30.15 1021 10 16.0934 N/A
9:35 am 09:35 Cloudy 28 -2.3 18 -7.6 67 67 WNW 10 17 30.15 1021 10 16.0934 N/A
9:55 am 09:55 Cloudy with Light Snow 28 -2.2 19 -7.3 68 68 NW 9 15 30.15 1021 10 16.0934 N/A
10:15 am 10:15 Cloudy with Light Snow 28 -2.1 19 -7.3 68 68 WNW 7 11 30.15 1021 10 16.0934 N/A
10:35 am 10:35 Cloudy with Light Snow 28 -2 19 -7.5 66 66 NW 10 17 30.15 1021 10 16.0934 N/A
10:55 am 10:55 Cloudy 29 -1.5 20 -6.7 68 68 WNW 9 15 30.15 1021 10 16.0934 N/A
11:15 am 11:15 Cloudy with Light Snow 29 -1.5 18 -7.9 62 62 WNW 14 22 30.15 1021 10 16.0934 N/A
11:35 am 11:35 Cloudy 30 -1.1 17 -8.5 58 58 NW 13 20 30.15 1021 10 16.0934 N/A
11:55 am 11:55 Cloudy with Light Snow 30 -1.3 18 -7.6 63 63 W 9 15 30.15 1021 10 16.0934 N/A
12:15 pm 12:15 Cloudy with Light Snow 30 -0.9 18 -7.9 59 59 NW 14 22 30.15 1021 10 16.0934 N/A
12:35 pm 12:35 Cloudy with Light Wintry Mix 32 undefined 19 -7.4 58 58 WNW 12 19 30.15 1021 10 16.0934 N/A
12:55 pm 12:55 Cloudy 32 -0.2 18 -8 56 56 WNW 10 17 30.15 1021 10 16.0934 N/A
1:15 pm 13:15 Cloudy 33 0.5 17 -8.6 51 51 NW 10 17 30.15 1021 10 16.0934 N/A
1:35 pm 13:35 Cloudy 35 1.7 17 -8.4 47 47 WNW 13 20 30.12 1020 10 16.0934 N/A
1:55 pm 13:55 Mostly Cloudy 36 2 17 -8.3 47 47 W 20 31 30.12 1020 10 16.0934 N/A
2:15 pm 14:15 Partly Cloudy 36 2.2 15 -9.3 43 43 WNW 14 22 30.09 1019 10 16.0934 N/A
2:35 pm 14:35 Partly Cloudy 37 2.7 16 -8.8 43 43 WNW 17 28 30.09 1019 10 16.0934 N/A
2:55 pm 14:55 Sunny 38 3.3 16 -9.1 40 40 W 20 31 30.09 1019 10 16.0934 N/A
3:15 pm 15:15 Sunny 38 3.6 16 -9 40 40 W 12 19 30.06 1018 10 16.0934 N/A
3:35 pm 15:35 Sunny 38 3.5 15 -9.6 38 38 W 14 22 30.06 1018 10 16.0934 N/A
3:55 pm 15:55 Mostly Cloudy 38 3.5 15 -9.7 38 38 WNW 15 24 30.06 1018 10 16.0934 N/A
4:15 pm 16:15 Cloudy 38 3.2 15 -9.7 39 39 W 12 19 30.06 1018 10 16.0934 N/A
4:35 pm 16:35 Cloudy 38 3.5 15 -9.5 38 38 W 16 26 30.06 1018 10 16.0934 N/A
4:55 pm 16:55 Mostly Cloudy 39 3.9 15 -9.6 37 37 W 17 28 30 1016 10 16.0934 N/A
5:15 pm 17:15 Sunny 40 4.3 15 -9.7 36 36 WNW 20 31 30 1016 10 16.0934 N/A
5:35 pm 17:35 Sunny 39 4 13 -10.4 34 34 W 22 35 30 1016 10 16.0934 N/A
5:55 pm 17:55 Sunny 39 4.1 14 -9.9 36 36 W 13 20 30 1016 10 16.0934 N/A
6:15 pm 18:15 Sunny 39 3.9 15 -9.7 37 37 W 16 26 30 1016 10 16.0934 N/A
6:35 pm 18:35 Sunny 39 3.8 14 -9.9 36 36 W 17 28 30 1016 10 16.0934 N/A
6:55 pm 18:55 Partly Cloudy 38 3.6 15 -9.7 37 37 W 13 20 29.97 1015 10 16.0934 N/A
7:15 pm 19:15 Sunny 38 3.3 15 -9.7 38 38 W 12 19 29.97 1015 10 16.0934 N/A
7:35 pm 19:35 Sunny 37 2.7 15 -9.5 41 41 WSW 10 17 30 1016 10 16.0934 N/A
7:55 pm 19:55 Clear 35 1.9 15 -9.5 43 43 WSW 8 13 30 1016 10 16.0934 N/A
8:15 pm 20:15 Clear 34 1 15 -9.6 45 45 WSW 7 11 30 1016 10 16.0934 N/A
8:35 pm 20:35 Clear 32 0.1 16 -9.1 50 50 SW 8 13 30 1016 10 16.0934 N/A
8:55 pm 20:55 Clear 32 undefined 16 -8.9 52 52 SW 8 13 30 1016 10 16.0934 N/A
9:15 pm 21:15 Clear 31 -0.3 16 -8.8 53 53 SW 6 9 30 1016 10 16.0934 N/A
9:35 pm 21:35 Clear 31 -0.4 16 -8.8 53 53 SW 6 9 30 1016 10 16.0934 N/A
9:55 pm 21:55 Clear 29 -1.7 18 -7.9 63 63 WSW 6 9 30 1016 10 16.0934 N/A
10:15 pm 22:15 Clear 28 -2.2 19 -7.2 69 69 SW 7 11 30 1016 10 16.0934 N/A
10:35 pm 22:35 Clear 28 -2.3 17 -8.6 62 62 SSW 6 9 30 1016 10 16.0934 N/A
10:55 pm 22:55 Clear 27 -2.6 17 -8.4 65 65 SW 7 11 30 1016 10 16.0934 N/A
11:15 pm 23:15 Clear 28 -2.2 17 -8.1 64 64 SW 6 9 29.97 1015 10 16.0934 N/A
11:35 pm 23:35 Clear 28 -2.2 18 -7.7 66 66 SW 7 11 29.97 1015 10 16.0934 N/A
11:55 pm 23:55 Clear 29 -1.5 19 -7.3 65 65 SW 7 11 29.97 1015 10 16.0934 N/A

Powered by AerisWeather